Location: Audignicourt
(49.4788°N, 3.1340°E)
Time: 21:37:08
(UTC+00:00)

CZ-4C R/B - Pass Details

Date: 15 May 2026
Orbit: 473 x 1503 km, 63.4° (Epoch: 10 June)

Event Time Altitude Azimuth Distance (km) Brightness Sun altitude
Rises 20:53:26 0° 263° (W) 2,852 5.5 -11.8°
Reaches altitude 10° 20:55:42 10° 275° (W) 2,069 4.9 -12.0°
Maximum altitude 20:59:51 30° 337° (NNW) 1,364 4.1 -12.5°
Drops below altitude 10° 21:05:04 10° 37° (NE) 2,631 5.0 -13.0°
Sets 21:08:20 0° 47° (NE) 3,778 5.6 -13.3°
